Regional Weather Roundup
Issued by NWS

Home | Current Version | Previous Version | Graphics & Text | Print | Product List | Glossary On
Versions: 1 2 3 4 5 6 7 8 9 10 11 12 13 14 15 16 17 18 19 20 21 22 23 24 25 26 27 28 29 30 31 32 33 34 35 36 37 38 39 40 41 42 43 44 45 46 47 48 49 50
000
ASUS43 KMPX 120210
RWRMN
WEATHER ROUNDUP FOR MINNESOTA
NATIONAL WEATHER SERVICE TWIN CITIES/CHANHASSEN MN
900 PM CDT FRI JUL 11 2014


NOTE: "FAIR" INDICATES FEW OR NO CLOUDS BELOW 12,000 FEET WITH NO
SIGNIFICANT WEATHER AND/OR OBSTRUCTIONS TO VISIBILITY. N/A MEANS
CURRENT SKY AND/OR WEATHER CONDITIONS ARE NOT AVAILABLE.

MNZ060>063-068>070-120300-
   Twin Cities Metro

CITY           SKY/WX    TMP DP  RH WIND       PRES   REMARKS
TWIN CITIES    PTCLDY    77  71  82 SE5       29.98R
ST PAUL        CLOUDY    76  71  85 SE6       29.98R
CRYSTAL        CLEAR     78  69  73 CALM      29.96S
BLAINE         PTCLDY    77  73  88 CALM      29.98R
LAKEVILLE      MOCLDY    73  70  88 S3        29.99S
EDEN PRAIRIE   MOCLDY    77  71  82 SE5       29.97R
SOUTH ST PAUL  MOCLDY    77  69  77 S5        29.98R
LAKE ELMO      CLOUDY    73  70  88 S5        30.00R
$$
MNZ001>005-007-008-013>017-022>024-027-028-120300-
   Northwest Minnesota

CITY           SKY/WX    TMP DP  RH WIND       PRES   REMARKS
BEMIDJI        CLEAR     74  54  50 W8        29.97R
HALLOCK        CLEAR     75  54  46 NW8       29.94R
ROSEAU         CLEAR     72  57  60 NW8       29.94R
WARROAD        CLEAR     72  55  56 W8        29.94R
THIEF RVR FALL CLEAR     73  52  46 NW10      29.96R
CROOKSTON      CLEAR     72  55  56 NW9       29.97R
FOSSTON        CLEAR     73  55  53 CALM      29.98R
DETROIT LAKES  CLEAR     77  63  61 CALM      30.00R
MOORHEAD       CLEAR     79  61  53 NW7       29.98R
PARK RAPIDS    CLEAR     72  63  73 W3        29.98R
$$
MNZ006-009>011-018-025>026-120300-
   North Central Minnesota

CITY           SKY/WX    TMP DP  RH WIND       PRES   REMARKS
BAUDETTE       CLEAR     73  52  47 W6        29.93R
FLAG ISLAND    CLEAR     72  55  56 NW13      29.91R
INTL FALLS     CLEAR     71  55  56 W5        29.90R
WASKISH        CLEAR     75  61  60 W8        29.93R
BIG FORK       CLEAR     72  61  68 SW2       29.94R
LONGVILLE      CLEAR     72  64  78 NW3       29.97R
GRAND RAPIDS   CLEAR     75  61  60 NW6       29.96R
CRANE LAKE     CLEAR     66  66 100 CALM      29.92R
ORR            CLEAR     68  64  88 CALM      29.90R
COOK           CLEAR     66  63  88 CALM      29.93R
$$
MNZ012-019>021-037-120300-
   Northeast Minnesota

CITY           SKY/WX    TMP DP  RH WIND       PRES   REMARKS
DULUTH         TSTM      67  63  87 S7        29.96R
ELY            MOCLDY    68  61  77 SW3       29.93R
HIBBING        PTCLDY    69  64  84 SW3       29.94R
EVELETH        PTCLDY    68  61  77 SW3       29.95S
DULUTH HARBOR  MOCLDY    72  64  78 N13       29.96R
TWO HARBORS    MOCLDY    70  64  83 SW5       29.93S
SILVER BAY     MOCLDY    70  70 100 CALM      29.91R
GRAND MARAIS     N/A     48  47  96 CALM      29.92R
G MARAIS ARPRT FOG       64  63  94 S5        29.97R VSB 3/4
$$
MNZ029>031-032-039>041-046>048-054>057-064-120300-
   West Central Minnesota

CITY           SKY/WX    TMP DP  RH WIND       PRES   REMARKS
FERGUS FALLS   CLEAR     79  63  57 N5        29.97R
WHEATON        CLEAR     77  66  69 NW5       29.98R
MORRIS         CLEAR     79  72  78 N6        29.96R
ALEXANDRIA     CLEAR     79  69  71 N5        30.00R
ELBOW LAKE     FAIR      77  68  73 NE3       29.98R
WADENA         CLEAR     73  66  78 CALM      29.99R
GLENWOOD       CLEAR     81  72  74 CALM      29.99S
APPLETON       CLEAR     82  73  74 CALM      29.95S
BENSON         CLEAR     81  72  74 CALM      29.96R
ORTONVILLE     PTCLDY    81  70  69 N3        29.97R
MADISON        PTCLDY    84  73  70 CALM      29.97R HX  91
WILLMAR        FAIR      81  70  69 CALM      29.98S
$$
MNZ033>034-036-042>043-049>051-058-059-120300-
   Central Minnesota

CITY           SKY/WX    TMP DP  RH WIND       PRES   REMARKS
ST CLOUD       CLEAR     77  72  84 S5        29.97R
SAUK CENTRE    MOCLDY    78  72  83 SW3       29.97S
PAYNESVILLE    PTCLDY    75  70  85 SE3       29.98S
AITKIN         CLEAR     73  66  78 E3        29.95R
PINE RIVER     CLEAR     75  66  73 W3        30.00R
BRAINERD       CLEAR     82  72  71 SW5       29.97R
STAPLES        CLEAR     75  66  73 NW6       29.98R
LONG PRAIRIE   FAIR      77  70  78 NW3       29.98R
LITTLE FALLS   MOCLDY    77  70  78 S3        29.97R
LITCHFIELD     CLEAR     79  75  89 CALM      29.98S
BUFFALO        CLEAR     77  71  81 CALM      29.98S
MAPLE LAKE     CLEAR     77  73  89 CALM      29.99R
$$
MNZ037-044-045-052-053-120300-
   East Central Minnesota

CITY           SKY/WX    TMP DP  RH WIND       PRES   REMARKS
PRINCETON      CLEAR     75  72  88 S3        29.98R
MORA           CLEAR     73  68  83 CALM      29.99R
CAMBRIDGE      CLEAR     75  66  73 CALM      29.96R
RUSH CITY      CLEAR     73  69  87 CALM      29.98S
MOOSE LAKE     PTCLDY    72  68  88 S5        29.95R
HINCKLEY       FAIR      73  70  88 S5        29.97S
CLOQUET        PTCLDY    72  66  83 CALM      29.97R
MCGREGOR       PTCLDY    72  70  94 SW3       29.96R
$$
MNZ071>073-080-081-089-090-097-098-120300-
   Southwest Minnesota

CITY           SKY/WX    TMP DP  RH WIND       PRES   REMARKS
MONTEVIDEO     CLEAR     81  72  74 SW3       29.97S
GRANITE FALLS  CLEAR     82  71  69 CALM      29.98S
CANBY          MOCLDY    80  71  72 CALM      29.98S
MARSHALL       PTCLDY    81  72  74 S5        29.97S
REDWOOD FALLS  CLEAR     80  74  81 SE5       29.97R
OLIVIA         CLEAR     79  72  78 S3        29.97S
PIPESTONE      CLEAR     75  72  88 SW5       30.02R
WINDOM         CLEAR     77  70  78 SW3       30.00S
WORTHINGTON    PTCLDY    73  72  94 SW6       30.03R
JACKSON        PTCLDY    77  68  73 SW5       30.02R
TRACY          CLEAR     78  73  83 SW3       29.99S
SLAYTON        CLEAR     75  72  88 CALM      30.02S
$$
MNZ065>067-074>077-082>085-091>093-120300-
   South Central Minnesota

CITY           SKY/WX    TMP DP  RH WIND       PRES   REMARKS
MANKATO        PTCLDY    79  66  65 S8        29.99R
NEW ULM        CLEAR     79  73  83 CALM      29.98S
ST JAMES       PTCLDY    79  72  78 CALM      29.99S
FAIRMONT       PTCLDY    75  66  73 S3        30.00R
GLENCOE        CLEAR     78  71  78 CALM      29.98R
FARIBAULT      MOCLDY    79  66  65 S7        30.00S
OWATONNA       PTCLDY    75  66  73 S9        30.01S
WASECA         CLOUDY    77  64  65 S8        30.02R
ALBERT LEA     CLEAR     73  66  78 S7        30.02R
$$
MNZ078>079-086>088-094>096-120300-
   Southeast Minnesota

CITY           SKY/WX    TMP DP  RH WIND       PRES   REMARKS
ROCHESTER      CLOUDY    72  66  81 S9        30.04S
RED WING       CLOUDY    75  68  78 CALM      29.99R
STANTON        CLOUDY    76  67  73 S7        29.98S
DODGE CENTER   MOCLDY    73  68  83 S7        30.03S
WINONA         CLOUDY    73  64  73 CALM      30.02F
AUSTIN         PTCLDY    73  66  78 S5        30.03R
PRESTON        CLOUDY    73  67  82 S5        30.06R
$$
ABBREVIATIONS USED IN REMARKS
   TC - TEMPERATURES IN CELSIUS
  WCI - WIND CHILL INDEX
   HX - HEAT INDEX
  VSB - VISIBILITY
$$



USA.gov is the U.S. government's official web portal to all federal, state and local government web resources and services.